Regional Weather Roundup
Issued by NWS State College, PA

Home | Current Version | Previous Version | Text Only | Print | Product List | Glossary Off
Versions: 1 2 3 4 5 6 7 8 9 10 11 12 13 14 15 16 17 18 19 20 21 22 23 24 25 26 27 28 29 30 31 32 33 34 35 36 37 38 39 40 41 42 43 44 45 46 47 48 49 50

000
ASUS41 KCTP 231110
RWRCTP

REGIONAL WEATHER ROUNDUP
NATIONAL WEATHER SERVICE STATE COLLEGE PA
700 AM EDT TUE MAY 23 2017

Note: "fair" indicates few or no clouds below 12,000 feet with no
significant weather and/or obstructions to visibility.

* = STATION THAT DOES NOT REPORT PRECIPITATION /E.G. RAIN...SNOW...ETC/
    THUNDER OR FOG.

PAZ002>004-007>009-013>016-020>023-029>032-231200-
WESTERN PENNSYLVANIA

CITY           SKY/WX    TMP DP  RH WIND       PRES   REMARKS
ERIE           CLOUDY    54  46  74 S7        29.94S
MEADVILLE      CLOUDY    51  47  86 CALM      29.96R
FRANKLIN*      CLOUDY    45  41  87 CALM      29.97R
NEW CASTLE     FAIR      47  47 100 CALM      29.96S
BEAVER COUNTY  SUNNY     48  46  93 CALM      29.96
BUTLER*        CLOUDY    46  45  93 NE3       29.96S
PITTSBURGH INT CLOUDY    49  48  97 CALM      29.95R
PITTSBURGH     CLOUDY    51  47  86 E3        29.95R
INDIANA*       NOT AVBL
LATROBE        CLOUDY    46  46 100 CALM      29.97R
WASHINGTON CO* CLOUDY    45  43  93 CALM      29.96F
$$

PAZ004>006-010>012-017>019-024>028-033>037-041-042-045-046-049>053-231200-
CENTRAL PENNSYLVANIA

CITY           SKY/WX    TMP DP  RH WIND       PRES   REMARKS
BRADFORD       CLOUDY    40  40 100 CALM      29.97S
DUBOIS         PTSUNNY   45  42  89 CALM      29.97R
CLEARFIELD     FOG       43  43 100 CALM      29.99R VSB 1/4
JOHNSTOWN      CLOUDY    49  45  86 CALM      29.98R
ALTOONA        CLOUDY    49  47  93 CALM      29.99R
STATE COLLEGE  NOT AVBL
WILLIAMSPORT   CLOUDY    51  50  96 W5        29.97S
SELINSGROVE    CLOUDY    48  48 100 CALM      29.98R
FT INDIANTOWN  CLOUDY    51  51 100 CALM      29.97R
CAPITAL CITY   CLOUDY    54  50  86 CALM      29.97R
HARRISBURG     CLOUDY    54  54 100 N3        29.96R
YORK           CLOUDY    52  52 100 CALM      29.96S FOG
$$

PAZ038>040-043-044-047-048-054-055-060>062-067>071-231200-
EASTERN PENNSYLVANIA

CITY           SKY/WX    TMP DP  RH WIND       PRES   REMARKS
SCRANTON       CLOUDY    51  44  77 E5        29.97S
MOUNT POCONO   CLOUDY    50  41  71 NW5       29.97R
ALLENTOWN      CLOUDY    54  51  90 CALM      29.97R
QUAKERTOWN*    CLOUDY    54  50  87 CALM      29.98R
READING        FOG       54  54 100 CALM      29.97R VSB 1/4
LANCASTER      CLOUDY    54  54 100 CALM      29.97R FOG
COATESVILLE    CLOUDY    55  54  94 N6        29.98R
POTTSTOWN      CLOUDY    54  54 100 CALM      29.98S FOG
BLUE BELL      CLOUDY    54  54 100 CALM      29.98S
DOYLESTOWN     MOSUNNY   55  55 100 NE3       29.97R
WILLOW GROVE   NOT AVBL
NORTH PHILA    CLOUDY    61  57  87 N8        29.97S FOG
PHILADELPHIA   CLOUDY    62  56  80 NE10      29.96S
$$



USA.gov is the U.S. government's official web portal to all federal, state and local government web resources and services.